StarCraft 板


https://www.twitch.tv/sc2starleague http://www.azubu.tv/EN_SC2_Starleague https://www.youtube.com/watch?v=0J6oY768rUA
http://www.douyu.com/scboy 賽事資訊 : http://goo.gl/CCiV6R 賽制 : 小組Bo3雙敗淘汰 Group A Group B Round of 8 Zest 2-1 5-3 Bomber 0-0 0-0 Dark ┐ ┌ Group B 1st Trust 1-2 3-5 Stats 0-0 0-0 Group D 2nd ┴┐ ┌┴ Group C 2nd aLive 0-2 1-4 Dear 0-0 0-0 │ │ Dark 2-0 4-1 GuMiho 0-0 0-0 │ │ ├─┴─┤ Group C Group D │ │ Classic 0-0 0-0 Reality 0-0 0-0 │ │ Solar 0-0 0-0 Cure 0-0 0-0 Group C 1st ┬┘ └┬ Group D 1st ByuN 0-0 0-0 TY 0-0 0-0 Group B 2nd ┘ └ Zest Super 0-0 0-0 Patience0-0 0-0 ------------------------------------------------------------------------------- KT Rolster.Zest vALL 64.58% vT 85.71% vP 63.64% vZ 39.29% 1992-07-11 24 62-34 30-5 21-12 11-17 Last 10 : L L W L L L W W W W http://i.imgur.com/e4ANz8U.jpg KT Rolster.Trust vALL 39.29% vT 50.00% vP 57.14% vZ 23.08% 1995-04-12 21 11-17 4-4 4-3 3-10 Last 10 : L L L L L W W L W L http://i.imgur.com/7KO449L.jpg Afreeca Freecs.aLive vALL 58.70% vT 50.38% vP 54.79% vZ 74.16% 1992-11-16 23 172-121 66-65 40-33 66-23 Last 10 : L W L L L W W L W W http://i.imgur.com/trIow7e.jpg SK Telecom T1.Dark vALL 59.74% vT 59.26% vP 66.67% vZ 53.85% 1995-10-06 20 46-31 16-11 16-8 14-12 Last 10 : L W L W W L L L W L http://i.imgur.com/kKtTsqh.jpg ------------------------------------------------------------------------------- Match 1 Dark(Z) 2-0 Trust(P) Game 1: Dark(Z) > Trust(P) @ Dusk Towers Game 2: Dark(Z) > Trust(P) @ King Sejong Station Game 3: Dark(Z) Trust(P) @ Match 2 Zest(P) 2-0 aLive(T) Game 1: Zest(P) > aLive(T) @ Frozen Temple Game 2: Zest(P) > aLive(T) @ Frost Game 3: Zest(P) aLive(T) @ Match 3 Dark(Z) 2-1 Zest(P) Game 1: Dark(Z) < Zest(P) @ Frozen Temple Game 2: Dark(Z) > Zest(P) @ King Sejong Station Game 3: Dark(Z) > Zest(P) @ New Gettysburg ------------------------------------------------------------------------------- Match 4 Trust(P) 2-1 aLive(T) Game 1: Trust(P) > aLive(T) @ King Sejong Station Game 2: Trust(P) < aLive(T) @ Frozen Temple Game 3: Trust(P) > aLive(T) @ Dusk Towers Match 5 Zest(P) 1-1 Trust(P) Game 1: Zest(P) > Trust(P) @ Forzen Temple Game 2: Zest(P) < Trust(P) @ Dusk Towers Game 3: Zest(P) Trust(P) @ Frost 地圖資訊: TvZ ZvP PvT T Z P Dusk Towers 286-254 229-263 224-261 198 339 143 Frost 207-225 303-312 247-219 131 225 226 Frozen Temple 132-112 100-110 89-105 72 136 76 King Sejong Station 272-232 309-340 218-212 117 278 245 Lerilak Crest 82-99 116-77 55-51 73 108 36 Orbital Shipyard 80-52 73-72 104-126 98 97 86 Rak'Shir 3-2 4-1 8-8 3 4 2 ------------------------------------------------------------------------------- 作者 JokerRF (RF) 看板 StarCraft 標題 [聯賽] 2016 SSL Season 2 Ro16 Group A 時間 Thu Jul 14 16:42:41 2016 ─────────────────────────────────────── 蟲族毀滅計劃 (0/2) --



※ 發信站: 批踢踢實業坊(ptt.cc), 來自: 140.120.24.55
※ 文章網址: https://webptt.com/m.aspx?n=bbs/StarCraft/M.1468485764.A.E4F.html ※ 編輯: JokerRF (140.120.24.55), 07/14/2016 16:43:06
1F:推 sing129: Z少成這樣Dark就有機會連冠了 07/14 16:49
2F:推 hyk32166: 可是dark近況不是很好 07/14 17:02
3F:→ JokerRF: 今天還有Dreamhack等打到Stage 2在Po了~~~~ 07/14 17:04
4F:推 com214111: 今天DARK能不能晉級還真難說XD 07/14 17:04
5F:推 a34781261: 無法獨立直播孫一鋒 07/14 17:05
6F:推 APM99: 女主持好漂漂>//< 07/14 17:11
7F:推 elvis222: 無法完成獨立直播... 07/14 17:12
8F:推 HornyHorng: trust ~ 07/14 17:16
9F:推 kgbrts: TRUST還在昏睡嗎 07/14 17:16
10F:推 sing129: 為啥Z對空改強後反而一堆P喜歡空投裂光球了 07/14 17:17
11F:推 ace0824: 真是雞 07/14 17:18
12F:推 APM99: ....PVZ今天目前勝率 0% 07/14 17:18
13F:→ JokerRF: 直接抓TIMING一波推死 07/14 17:19
14F:推 kgbrts: dark都不想熱手了嗎直接往死裡打 07/14 17:24
15F:推 APM99: 嗚嗚 幫神族QQ 07/14 17:25
16F:推 com214111: Dark輕鬆虐 07/14 17:25
17F:推 ace0824: 太雞了.... 07/14 17:25
18F:推 sing129: 這到底是P太爛還是Z太強 有點看不懂了 07/14 17:25
19F:推 HornyHorng: 好慘ww 07/14 17:25
20F:推 eternalviva: 這兩場的時間加總有超過15分鐘嗎... 07/14 17:25
21F:→ kgbrts: 真是慘別人也想踢球阿 07/14 17:26
22F:→ JokerRF: Dark:抬下去 07/14 17:26
23F:推 bryant1228: Da rk節奏抓超好 07/14 17:27
24F:推 mcpsmcps: 寄人籬下f91 07/14 17:30
25F:推 kgbrts: 寄人籬下孫一峰XD 07/14 17:30
26F:推 elvis222: 房間名字就是寄人籬下xdddd 07/14 17:30
27F:推 kissufo999: 寄人籬下孫一峰 07/14 17:31
28F:→ elvis222: 把gif檔了xddd 07/14 17:31
29F:推 jeffsu: dark這組敵人只有老僧吧 賈布哥打z也是悲劇 07/14 17:33
30F:推 kgbrts: 杭州網路有這麼悲劇阿 07/14 17:36
31F:推 kgbrts: 賈布哥居然二指禪對付少林老僧 07/14 17:39
32F:推 kgbrts: 老僧大吃一驚沒有算到結果 07/14 17:42
33F:推 ace0824: 死了 07/14 17:42
34F:→ JokerRF: 完全沒轍 07/14 17:42
35F:→ kgbrts: 今天難道又是一路2:0 07/14 17:43
36F:→ kyley: wait alives photo looks so young... 07/14 17:43
37F:推 ace0824: 這被殺慘了 07/14 17:47
38F:→ JokerRF: 槍兵:來 來 你來 07/14 17:49
39F:推 kgbrts: 老僧這盤不錯啊加油 07/14 17:49
40F:推 ace0824: 透明人優勢很大 07/14 17:49
41F:→ ace0824: 虧回去了 07/14 17:50
42F:推 tasin: Zest這操作風騷到人族會崩潰 07/14 17:51
43F:推 ace0824: 透明人這樣優勢還輸..... 07/14 17:52
44F:→ JokerRF: 直接跳臉 一小時不到打完兩個Bo3 07/14 17:53
45F:推 qqq87112: 賈布哥果斷換家 07/14 17:53
46F:推 bustmante: Zest的PvT真的形如流水 07/14 17:53
47F:推 FANggot: 打得好快 07/14 17:53
48F:→ JokerRF: Dark這出線機會很大阿 07/14 17:54
49F:推 APM99: 希望Zest能救救今日PVZ勝率QQ 07/14 17:56
50F:推 CharcoalMoon: 右邊的對戰表有一個B組的打成D囉 07/14 18:04
51F:推 kgbrts: 賈布哥微微一笑 07/14 18:14
52F:推 ace0824: Dark虧爆了 07/14 18:15
53F:推 Rayio: 這大砲台太漂亮了 不用造幾個兵就守住還多一堆農民 07/14 18:15
54F:推 kgbrts: 傳聞賈布哥打Z就是一坨,黑暗不知道信不信這套說法 07/14 18:26
55F:推 kgbrts: 地刺還是很靠普的阿 07/14 18:29
56F:推 ace0824: Zest這封家虧了 07/14 18:30
57F:→ lovinlover: 地刺賺很大 07/14 18:31
58F:→ ace0824: 空投地刺阿XDDDD 07/14 18:31
59F:推 ace0824: 還不昇三本嗎 07/14 18:34
60F:推 kgbrts: 神族地面如何對抗一大坨地刺orz 07/14 18:34
61F:推 ace0824: Zest沒啥救了 07/14 18:38
62F:→ ace0824: Zest幹嘛不採二礦 07/14 18:38
63F:→ ace0824: 看到大龍就GG了XDDDDD 07/14 18:40
64F:推 jeffsu: 賈布哥正常發揮 07/14 18:40
65F:推 FANggot: 好辛苦的一場 07/14 18:40
66F:推 APM99: Zest好強 完全沒經濟各種繞路也打了好久 07/14 18:40
67F:推 com214111: Dark差點倒 07/14 18:40
68F:→ jeffsu: 空投地刺亂太爽 07/14 18:40
69F:推 ace0824: 女王射程真的有差 07/14 18:48
70F:推 kgbrts: 黑暗的奇襲兵 07/14 18:49
71F:推 kgbrts: 教士騎臉 07/14 18:51
72F:推 zzro: EPIC.... 07/14 18:52
73F:推 ace0824: Dark好強 07/14 18:52
74F:推 bbbyy: 非過去被毒爆狀光了!!? 07/14 18:52
75F:推 elvis222: 居然被炸了 07/14 18:53
76F:→ zzro: 應該是直接閃在毒爆上 不然沒辦法炸那麼多隻 07/14 18:53
77F:→ lovinlover: 這奶得讓人看不懂了 07/14 18:53
78F:推 kgbrts: 兩人都沒死,賈布這實力打Z居然不到四成 07/14 18:53
79F:→ ace0824: 蟲族也能玩空接XDDD 07/14 18:54
80F:噓 shulado: Zest這場操作有夠爛 07/14 18:54
81F:推 semiacicada: Dark其實是T轉Z吧 07/14 18:54
82F:推 com214111: Dark真強 07/14 18:54
83F:推 emilio0209: 賈布哥又凶多吉少了QQ 07/14 18:54
84F:推 bbbyy: Zest一臉無法接受的樣子 07/14 18:55
85F:推 bustmante: 就看dark不爽 可惜zest 打Z不給力 07/14 18:55
86F:→ ace0824: 這個BO3是上屆SSL跟GSL冠軍正面對決阿 07/14 18:55
87F:推 jeffsu: 賈布哥打z本來就很弱 沒啥意外吧== 07/14 18:55
88F:推 GianniC: dark我真的以為被教士a 死了 這怎麼救的 07/14 18:55
89F:推 CharcoalMoon: Dark回來了嗎?! 07/14 18:55
90F:推 tasin: 還蠻精彩的 07/14 18:55
91F:推 Adonisy: 差點DARK就跪了 07/14 18:55
92F:推 purplecake: zest教士沒分吧,不知道為什麼沒有分礦去飛 07/14 18:56
93F:→ CharcoalMoon: 又在強行翻譯XD 07/14 18:56
94F:→ bustmante: 就選人有一點優勢而已 07/14 18:56
95F:推 b8944042: 靈魂翻譯 07/14 18:56
96F:→ Adonisy: 又再強行亂翻譯 XD 07/14 18:56
97F:→ GianniC: 我本來以為死定了 還好蟑螂及時 07/14 18:56
98F:推 APM99: Zest Q_____Q 07/14 18:56
99F:→ ace0824: 就Zest一堆教士飛三礦被毒爆炸光了 07/14 18:56
100F:→ hardyuse: Zest把PvZ當成PvT打了 蟲族一堆單位可以打教士的 07/14 18:59
101F:推 GianniC: 教士有操作不是很怕少量毒爆 07/14 19:00
102F:→ hardyuse: 打T教士可以隨便飄 打Z沒飄好被炸被圍就噴了 07/14 19:00
103F:推 kgbrts: 這衣服XD 07/14 19:01
104F:→ GianniC: 他有稜鏡可以收 07/14 19:02
105F:推 cxzqwer: 現在ZvP沒事要把毒爆蟑螂巢蓋好然後看情況調出兵比例 07/14 19:02
106F:推 GianniC: 教士超惡質 07/14 19:06
107F:推 ace0824: 互野XDD 07/14 19:12
108F:→ ace0824: 透明人虧爆啦 07/14 19:12
109F:推 qoo74119: 真的!蟑螂巢時間要跳快點!不然教士難防 07/14 19:13
110F:推 bbbyy: 空頭自爆球 07/14 19:13
111F:→ bbbyy: 媽的 老僧被炸慘了 07/14 19:14
112F:推 elvis222: 好賺 07/14 19:15
113F:→ JokerRF: 老僧不好打了阿 07/14 19:15
114F:推 ace0824: 快沒農了 07/14 19:15
115F:推 cxzqwer: 媽啊... 07/14 19:16
116F:→ ace0824: 不過Trust的營運有點弱 07/14 19:16
117F:推 jeffsu: 這招太久沒人用 但老僧也太慘了吧XDDDD 07/14 19:17
118F:推 cxzqwer: 這比以前運輸機帶2掠奪者還兇狠 07/14 19:18
119F:推 nbgfdew: 好虐....... 07/14 19:18
120F:推 wyiwyi: 好慘 07/14 19:18
121F:→ JokerRF: 裂光賺太大了 T根本沒法暴兵 07/14 19:18
122F:→ hardyuse: 提速稜鏡搭裂光球炸爽爽 07/14 19:19
123F:→ JokerRF: 老僧直接兩礦一波 07/14 19:25
124F:→ JokerRF: 不妙阿 不過P沒繼續攀科技還有的打 07/14 19:29
125F:推 bbbyy: 老僧這場應該沒機會了吧 三況沒開起來 二況還被殺光 07/14 19:30
126F:→ JokerRF: 不朽教士追獵能打贏這組合就真的PIMBA 07/14 19:31
127F:推 kgbrts: 這兩人打得這麼慘烈 07/14 19:31
128F:推 ace0824: 好慘烈 07/14 19:33
129F:推 bbbyy: 好僧這波也打得夠兇猛 慘烈的一場 07/14 19:33
130F:推 jeffsu: 焦土戰 07/14 19:33
131F:推 jeffsu: 兩邊40人口XDDDDDDDDDD 07/14 19:35
132F:推 kgbrts: 太鐵血了這兩人 07/14 19:35
133F:推 bbbyy: 好慘烈的一場阿XDDD 07/14 19:35
134F:推 ace0824: 透明人贏了 07/14 19:35
135F:推 APM99: aLive這穩贏局面怎麼打的那麼辛苦嘛 07/14 19:35
136F:推 ace0824: 透明人之死 07/14 19:44
137F:推 jeffsu: 被教士玩死了 07/14 19:44
138F:→ JokerRF: 跪了 07/14 19:44
139F:推 bbbyy: 還是被教士玩死了 真慘 07/14 19:45
140F:→ jeffsu: 賈布哥爽的要死 xdddd 07/14 19:45
141F:→ hardyuse: P只要出稜鏡使徒要先贏50% 07/14 19:45
142F:→ hardyuse: 就 07/14 19:45
143F:推 teren: 又是這招玩死... 07/14 19:45
144F:推 austincold: 看到老僧的兵出門就知道老僧要輸了 07/14 19:46
145F:推 Emerson158: 為何韓國美女看起來都一個樣子... 07/14 19:47
146F:推 kgbrts: 看得要是不一樣會被罵的阿,品管和生產線出問題 07/14 19:49
147F:→ qqq87112: 人種部相近 看起來都一樣 看那外國人都長一樣 07/14 19:51
148F:推 kgbrts: 當主播最慘的就是被排擠 07/14 20:00
149F:推 elvis222: 一家之主孫一峰 07/14 20:04
150F:推 GianniC: 神族內奸 zest 07/14 20:04
151F:→ JokerRF: 好很阿 這樣打隊友 07/14 20:07
152F:推 kgbrts: 辛苦打上來送頭 07/14 20:08
153F:推 ace0824: 殺八農 07/14 20:13
154F:推 kgbrts: 難道是隊內交流賽 07/14 20:14
155F:推 ace0824: 又互殺XD 07/14 20:16
156F:→ ace0824: 為啥不VS出個鳳凰 07/14 20:17
157F:推 ace0824: Zest被幹了XD 07/14 20:19
158F:推 jeffsu: 賈布哥大危機!!! 07/14 20:20
159F:推 qqq87112: 廣告商 賈布哥做得好 07/14 20:20
160F:推 kgbrts: 果然都是套路下手這麼狠別人也無法說什麼XD 07/14 20:29
※ 編輯: JokerRF (220.133.162.192), 07/14/2016 20:32:04
161F:推 ace0824: 還是輸了XD 07/14 20:31
162F:推 emilio0209: 賈布哥又強又帥 07/14 20:32
163F:推 GianniC: 果然是內奸 07/14 20:32
164F:→ JokerRF: 決賽前可能碰不到Z 嘎布哥爽翻天 07/14 20:33
165F:推 wyiwyi: 竟然折躍到二嫂....一定是故意的XD 07/14 20:35
166F:推 Zoro303: 請問有VOD嗎?? 07/14 20:37
167F:推 shamus0309: 為什麼賈布死不了 07/14 21:18
168F:推 Dragon850425: 不好意思, 請問二嫂是指廈門孫一峰抖內的女主撥嗎, 07/15 00:04
169F:→ Dragon850425: 只follow部份 07/15 00:04
170F:→ lovinlover: 是 07/15 09:38







like.gif 您可能會有興趣的文章
icon.png[問題/行為] 貓晚上進房間會不會有憋尿問題
icon.pngRe: [閒聊] 選了錯誤的女孩成為魔法少女 XDDDDDDDDDD
icon.png[正妹] 瑞典 一張
icon.png[心得] EMS高領長版毛衣.墨小樓MC1002
icon.png[分享] 丹龍隔熱紙GE55+33+22
icon.png[問題] 清洗洗衣機
icon.png[尋物] 窗台下的空間
icon.png[閒聊] 双極の女神1 木魔爵
icon.png[售車] 新竹 1997 march 1297cc 白色 四門
icon.png[討論] 能從照片感受到攝影者心情嗎
icon.png[狂賀] 賀賀賀賀 賀!島村卯月!總選舉NO.1
icon.png[難過] 羨慕白皮膚的女生
icon.png閱讀文章
icon.png[黑特]
icon.png[問題] SBK S1安裝於安全帽位置
icon.png[分享] 舊woo100絕版開箱!!
icon.pngRe: [無言] 關於小包衛生紙
icon.png[開箱] E5-2683V3 RX480Strix 快睿C1 簡單測試
icon.png[心得] 蒼の海賊龍 地獄 執行者16PT
icon.png[售車] 1999年Virage iO 1.8EXi
icon.png[心得] 挑戰33 LV10 獅子座pt solo
icon.png[閒聊] 手把手教你不被桶之新手主購教學
icon.png[分享] Civic Type R 量產版官方照無預警流出
icon.png[售車] Golf 4 2.0 銀色 自排
icon.png[出售] Graco提籃汽座(有底座)2000元誠可議
icon.png[問題] 請問補牙材質掉了還能再補嗎?(台中半年內
icon.png[問題] 44th 單曲 生寫竟然都給重複的啊啊!
icon.png[心得] 華南紅卡/icash 核卡
icon.png[問題] 拔牙矯正這樣正常嗎
icon.png[贈送] 老莫高業 初業 102年版
icon.png[情報] 三大行動支付 本季掀戰火
icon.png[寶寶] 博客來Amos水蠟筆5/1特價五折
icon.pngRe: [心得] 新鮮人一些面試分享
icon.png[心得] 蒼の海賊龍 地獄 麒麟25PT
icon.pngRe: [閒聊] (君の名は。雷慎入) 君名二創漫畫翻譯
icon.pngRe: [閒聊] OGN中場影片:失蹤人口局 (英文字幕)
icon.png[問題] 台灣大哥大4G訊號差
icon.png[出售] [全國]全新千尋侘草LED燈, 水草
伺服器連線錯誤,造成您的不便還請多多包涵!
「贊助商連結」






like.gif 您可能會有興趣的文章
icon.png[問題/行為] 貓晚上進房間會不會有憋尿問題
icon.pngRe: [閒聊] 選了錯誤的女孩成為魔法少女 XDDDDDDDDDD
icon.png[正妹] 瑞典 一張
icon.png[心得] EMS高領長版毛衣.墨小樓MC1002
icon.png[分享] 丹龍隔熱紙GE55+33+22
icon.png[問題] 清洗洗衣機
icon.png[尋物] 窗台下的空間
icon.png[閒聊] 双極の女神1 木魔爵
icon.png[售車] 新竹 1997 march 1297cc 白色 四門
icon.png[討論] 能從照片感受到攝影者心情嗎
icon.png[狂賀] 賀賀賀賀 賀!島村卯月!總選舉NO.1
icon.png[難過] 羨慕白皮膚的女生
icon.png閱讀文章
icon.png[黑特]
icon.png[問題] SBK S1安裝於安全帽位置
icon.png[分享] 舊woo100絕版開箱!!
icon.pngRe: [無言] 關於小包衛生紙
icon.png[開箱] E5-2683V3 RX480Strix 快睿C1 簡單測試
icon.png[心得] 蒼の海賊龍 地獄 執行者16PT
icon.png[售車] 1999年Virage iO 1.8EXi
icon.png[心得] 挑戰33 LV10 獅子座pt solo
icon.png[閒聊] 手把手教你不被桶之新手主購教學
icon.png[分享] Civic Type R 量產版官方照無預警流出
icon.png[售車] Golf 4 2.0 銀色 自排
icon.png[出售] Graco提籃汽座(有底座)2000元誠可議
icon.png[問題] 請問補牙材質掉了還能再補嗎?(台中半年內
icon.png[問題] 44th 單曲 生寫竟然都給重複的啊啊!
icon.png[心得] 華南紅卡/icash 核卡
icon.png[問題] 拔牙矯正這樣正常嗎
icon.png[贈送] 老莫高業 初業 102年版
icon.png[情報] 三大行動支付 本季掀戰火
icon.png[寶寶] 博客來Amos水蠟筆5/1特價五折
icon.pngRe: [心得] 新鮮人一些面試分享
icon.png[心得] 蒼の海賊龍 地獄 麒麟25PT
icon.pngRe: [閒聊] (君の名は。雷慎入) 君名二創漫畫翻譯
icon.pngRe: [閒聊] OGN中場影片:失蹤人口局 (英文字幕)
icon.png[問題] 台灣大哥大4G訊號差
icon.png[出售] [全國]全新千尋侘草LED燈, 水草

請輸入看板名稱,例如:BabyMother站內搜尋

TOP